Regional Weather Roundup
Issued by NWS

Home | Current Version | Previous Version | Graphics & Text | Print | Product List | Glossary On
Versions: 1 2 3 4 5 6 7 8 9 10 11 12 13 14 15 16 17 18 19 20 21 22 23 24 25 26 27 28 29 30 31 32 33 34 35 36 37 38 39 40 41 42 43 44 45 46 47 48 49 50
000
ASUS43 KLMK 010102
RWRKY
KENTUCKY REGIONAL WEATHER ROUNDUP
NATIONAL WEATHER SERVICE LOUISVILLE KY
900 PM EDT FRI OCT 31 2014

NOTE "FAIR" INDICATES FEW OR NO CLOUDS BELOW 12,000 FEET
WITH NO SIGNIFICANT WEATHER AND/OR OBSTRUCTIONS TO VISIBILITY.

KYZ001>023-026-027-061>063-070>075-010200-
WESTERN AND SOUTH CENTRAL KENTUCKY

CITY           SKY/WX    TMP DP  RH WIND       PRES   REMARKS
PADUCAH        CLEAR     42  23  46 N13G20    30.27R
HENDERSON      CLOUDY    43  21  42 NW21G31   30.21R
OWENSBORO      CLOUDY    42  26  53 NW23G37   30.17R
HOPKINSVILLE   MOCLDY    41  26  54 NW12      30.18S
BOWLING GREEN  CLOUDY    39  31  72 NW12G17   30.14R WCI  32
GLASGOW        NOT AVBL
$$

KYZ024-025-028>034-038-045-046-053-010200-
NORTH CENTRAL KENTUCKY

CITY           SKY/WX    TMP DP  RH WIND       PRES   REMARKS
LOUISVILLE/SDF LGT RAIN  37  34  89 NW12      30.05S WCI  29
LOUISVILLE/LOU RAIN      37  34  89 NW14      30.06S FOG     WCI  28
FORT KNOX      FLURRIES  36  32  87 W10G20    30.05F WCI  28
$$

KYZ035>037-039>044-047>052-055>060-089>105-010200-
NORTHEAST KENTUCKY

CITY           SKY/WX    TMP DP  RH WIND       PRES   REMARKS
LEXINGTON      LGT RAIN  39  34  82 NW9       29.99S WCI  33
COVINGTON      LGT RAIN  38  35  89 NW9       29.97S WCI  31
FRANKFORT      CLOUDY    37  32  82 NW8       30.00R WCI  31
$$

KYZ054-064>069-076>088-106>120-010200-
SOUTHEAST KENTUCKY

CITY           SKY/WX    TMP DP  RH WIND       PRES   REMARKS
JACKSON        FLURRIES  35  33  92 VRB5      29.95S WCI  31
LONDON         LGT RAIN  37  33  85 NW9       29.99S FOG     WCI  30
SOMERSET       CLOUDY    36  34  93 NW7       30.04S WCI  30
MIDDLESBORO    NOT AVBL
MONTICELLO     CLOUDY    38  34  85 NW13G18   30.06R FOG     WCI  30
$$




USA.gov is the U.S. government's official web portal to all federal, state and local government web resources and services.